Αρχική σελίδα
METAR-TAF:

METAR-TAF

Αεροδρόμια :

Independence, Κάνσας, Ηνωμένες Πολιτείες Αμερικής

γεωγραφικό πλάτος: 37-09-30N, γεωγραφικό μήκος: 095-46-42W, υψόμετρο: 251 μ

Παρών καιρός

Η αναφορά έγινε 20 λεπτά πριν, στις 18:50 UTC
Άνεμος 9 kt από Β
Θερμοκρασία -1°C
Υγρασία 86%
Πίεση 1026 hPa
Ορατότητα: 16.1 χλμ
Νεφοσκεπής σε ύψος 1200 πόδια

METAR: KIDP 181850Z AUTO 35009KT 10SM OVC012 M01/M03 A3029 RMK AO2 T10051034

Χρόνος: 13:10 (19:10 UTC)


TAF: λείπει

Μετεωρολογικές αναφορές και προγνώσεις για περισσότερα από 4000 αεροδρόμια (δελτία METAR και TAF).

Οι διαθέσιμοι σταθμοί απεικονίζονται στο χάρτη με κίτρινες και κόκκινες κουκκίδες.

Μετακινήστε το ποντίκι πάνω από τις κουκκίδες για να δείτε το όνομα του σταθμού.

Στη συνέχεια, κάντε κλικ για να δείτε τις μετεωρολογικές αναφορές και τις προγνώσεις καιρού.

Για να αλλάξετε το χάρτη: κάντε κλικ στα πράσινα κουμπιά με τον μαύρο σταυρό για να ζουμάρετε, στο πράσινο κουμπί με την παύλα για να αφαιρέσετε το ζουμ ή στα πράσινα βέλη για να αντιπαραβάλλετε χάρτες.


METAR-TAF: